Time,TemperatureF,DewpointF,PressureIn,WindDirection,WindDirectionDegrees,WindSpeedMPH,WindSpeedGustMPH,Humidity,HourlyPrecipIn,Conditions,Clouds,dailyrainin,SoftwareType,DateUTC
2013-01-12 00:14:00,66.8,63.5,30.15,ESE,123,0.0,0.0,89,0.00,,,0.00,WeatherDisplay:10.37,2013-01-12 05:14:00,
2013-01-12 00:29:00,66.3,63.0,30.14,ESE,123,0.0,0.0,89,0.00,,,0.00,WeatherDisplay:10.37,2013-01-12 05:29:00,
2013-01-12 00:44:00,66.0,63.0,30.14,ESE,123,0.0,0.0,90,0.00,,,0.00,WeatherDisplay:10.37,2013-01-12 05:44:00,
2013-01-12 00:59:00,65.5,62.5,30.13,ESE,123,0.0,0.0,90,0.00,,,0.00,WeatherDisplay:10.37,2013-01-12 05:59:00,
2013-01-12 01:15:00,64.9,62.2,30.13,ESE,123,0.0,0.0,91,0.00,,,0.00,WeatherDisplay:10.37,2013-01-12 06:15:00,
2013-01-12 01:30:00,64.3,61.6,30.13,ESE,123,0.0,0.0,91,0.00,,,0.00,WeatherDisplay:10.37,2013-01-12 06:30:00,
2013-01-12 01:44:00,64.5,62.1,30.13,ESE,123,0.0,0.0,92,0.00,,,0.00,WeatherDisplay:10.37,2013-01-12 06:44:00,
2013-01-12 01:59:00,64.0,61.6,30.13,ESE,123,0.0,0.0,92,0.00,,,0.00,WeatherDisplay:10.37,2013-01-12 06:59:00,
2013-01-12 02:14:00,64.0,61.6,30.13,ESE,123,0.0,0.0,92,0.00,,,0.00,WeatherDisplay:10.37,2013-01-12 07:14:00,
2013-01-12 02:29:00,63.4,61.0,30.12,ESE,123,0.0,0.0,92,0.00,,,0.00,WeatherDisplay:10.37,2013-01-12 07:29:00,
2013-01-12 02:44:00,63.1,60.7,30.12,ESE,123,0.0,0.0,92,0.00,,,0.00,WeatherDisplay:10.37,2013-01-12 07:44:00,
2013-01-12 02:59:00,62.4,60.3,30.12,ESE,123,0.0,0.0,93,0.00,,,0.00,WeatherDisplay:10.37,2013-01-12 07:59:00,
2013-01-12 03:14:00,62.1,60.1,30.11,ESE,123,0.0,0.0,93,0.00,,,0.00,WeatherDisplay:10.37,2013-01-12 08:14:00,
2013-01-12 03:29:00,62.3,60.2,30.11,ESE,123,0.0,0.0,93,0.00,,,0.00,WeatherDisplay:10.37,2013-01-12 08:29:00,
2013-01-12 03:44:00,62.0,60.0,30.11,ESE,123,0.0,0.0,93,0.00,,,0.00,WeatherDisplay:10.37,2013-01-12 08:44:00,
2013-01-12 03:59:00,61.4,59.7,30.11,ESE,123,0.0,0.0,94,0.00,,,0.00,WeatherDisplay:10.37,2013-01-12 08:59:00,
2013-01-12 04:14:00,61.8,60.1,30.10,ESE,123,0.0,0.0,94,0.00,,,0.00,WeatherDisplay:10.37,2013-01-12 09:14:00,
2013-01-12 04:29:00,61.6,59.9,30.10,ESE,123,0.0,0.0,94,0.00,,,0.00,WeatherDisplay:10.37,2013-01-12 09:29:00,
2013-01-12 04:44:00,61.8,60.3,30.10,ESE,123,0.0,0.0,95,0.00,,,0.00,WeatherDisplay:10.37,2013-01-12 09:44:00,
2013-01-12 04:59:00,61.0,59.3,30.10,ESE,123,0.0,0.0,94,0.00,,,0.00,WeatherDisplay:10.37,2013-01-12 09:59:00,
2013-01-12 05:14:00,60.7,59.3,30.10,ESE,123,0.0,0.0,95,0.00,,,0.00,WeatherDisplay:10.37,2013-01-12 10:14:00,
2013-01-12 05:29:00,60.1,58.7,30.10,ESE,123,0.0,0.0,95,0.00,,,0.00,WeatherDisplay:10.37,2013-01-12 10:29:00,
2013-01-12 05:44:00,59.7,58.3,30.10,ESE,123,0.0,0.0,95,0.00,,,0.00,WeatherDisplay:10.37,2013-01-12 10:44:00,
2013-01-12 05:59:00,59.6,58.2,30.10,ESE,123,0.0,0.0,95,0.00,,,0.00,WeatherDisplay:10.37,2013-01-12 10:59:00,
2013-01-12 06:14:00,59.9,58.5,30.11,ESE,123,0.0,0.0,95,0.00,,,0.00,WeatherDisplay:10.37,2013-01-12 11:14:00,
2013-01-12 06:29:00,59.4,58.0,30.11,ESE,123,0.0,0.0,95,0.00,,,0.00,WeatherDisplay:10.37,2013-01-12 11:29:00,
2013-01-12 06:44:00,59.5,58.4,30.12,ESE,123,0.0,0.0,96,0.00,,,0.00,WeatherDisplay:10.37,2013-01-12 11:44:00,
2013-01-12 06:59:00,60.2,59.0,30.12,ESE,123,0.0,0.0,96,0.00,CLR,,0.00,WeatherDisplay:10.37,2013-01-12 11:59:00,
2013-01-12 07:14:00,59.6,58.5,30.12,ESE,123,0.0,0.0,96,0.00,CLR,,0.00,WeatherDisplay:10.37,2013-01-12 12:14:00,
2013-01-12 07:29:00,59.8,58.7,30.13,ESE,123,0.0,0.0,96,0.00,CLR,,0.00,WeatherDisplay:10.37,2013-01-12 12:29:00,
2013-01-12 07:44:00,59.6,58.5,30.13,ESE,123,0.0,0.0,96,0.00,CLR,,0.00,WeatherDisplay:10.37,2013-01-12 12:44:00,
2013-01-12 07:59:00,59.9,58.8,30.14,ESE,123,0.0,0.0,96,0.00,CLR,,0.00,WeatherDisplay:10.37,2013-01-12 12:59:00,
2013-01-12 08:14:00,61.1,60.2,30.14,ESE,123,0.0,0.0,97,0.00,CLR,,0.00,WeatherDisplay:10.37,2013-01-12 13:14:00,
2013-01-12 08:29:00,62.6,61.8,30.14,ESE,123,0.0,0.0,97,0.00,CLR,,0.00,WeatherDisplay:10.37,2013-01-12 13:29:00,
2013-01-12 08:44:00,64.2,63.6,30.15,ESE,123,0.0,0.0,98,0.00,CLR,,0.00,WeatherDisplay:10.37,2013-01-12 13:44:00,
2013-01-12 08:59:00,65.5,64.9,30.15,ESE,123,0.0,0.0,98,0.00,CLR,,0.00,WeatherDisplay:10.37,2013-01-12 13:59:00,
2013-01-12 09:14:00,67.5,66.9,30.15,ESE,123,0.0,0.0,98,0.00,CLR,,0.00,WeatherDisplay:10.37,2013-01-12 14:14:00,
2013-01-12 09:29:00,68.9,68.0,30.15,ESE,123,0.0,0.0,97,0.00,CLR,,0.00,WeatherDisplay:10.37,2013-01-12 14:29:00,
2013-01-12 09:44:00,70.0,68.8,30.15,ESE,123,0.0,0.0,96,0.00,CLR,,0.00,WeatherDisplay:10.37,2013-01-12 14:44:00,
2013-01-12 09:59:00,71.5,68.7,30.15,ESE,123,0.0,4.0,91,0.00,CLR,,0.00,WeatherDisplay:10.37,2013-01-12 14:59:00,
2013-01-12 10:14:00,72.8,67.4,30.15,ESE,116,0.0,0.0,83,0.00,CLR,,0.00,WeatherDisplay:10.37,2013-01-12 15:14:00,
2013-01-12 10:29:00,74.2,67.3,30.14,ESE,116,0.0,5.0,79,0.00,CLR,,0.00,WeatherDisplay:10.37,2013-01-12 15:29:00,
2013-01-12 10:44:00,75.7,66.4,30.14,ESE,102,3.0,10.0,73,0.00,CLR,,0.00,WeatherDisplay:10.37,2013-01-12 15:44:00,
2013-01-12 10:59:00,76.5,66.4,30.13,SE,127,0.0,7.0,71,0.00,CLR,,0.00,WeatherDisplay:10.37,2013-01-12 15:59:00,
2013-01-12 11:14:00,77.8,66.4,30.12,SE,132,0.0,9.0,68,0.00,CLR,,0.00,WeatherDisplay:10.37,2013-01-12 16:14:00,
2013-01-12 11:29:00,78.3,65.1,30.11,SE,134,0.0,7.0,64,0.00,CLR,,0.00,WeatherDisplay:10.37,2013-01-12 16:29:00,
2013-01-12 11:44:00,77.9,63.8,30.11,ESE,118,0.0,7.0,62,0.00,CLR,,0.00,WeatherDisplay:10.37,2013-01-12 16:44:00,
2013-01-12 11:59:00,78.6,63.6,30.10,ENE,65,0.0,5.0,60,0.00,CLR,,0.00,WeatherDisplay:10.37,2013-01-12 16:59:00,
2013-01-12 12:14:00,79.8,63.7,30.09,ENE,67,0.0,8.0,58,0.00,CLR,,0.00,WeatherDisplay:10.37,2013-01-12 17:14:00,
2013-01-12 12:29:00,81.3,63.6,30.08,ESE,103,0.0,0.0,55,0.00,CLR,,0.00,WeatherDisplay:10.37,2013-01-12 17:29:00,
2013-01-12 12:44:00,82.6,63.2,30.07,SE,136,0.0,4.0,52,0.00,CLR,,0.00,WeatherDisplay:10.37,2013-01-12 17:44:00,
2013-01-12 12:59:00,81.4,63.2,30.07,NNW,339,0.0,5.0,54,0.00,CLR,,0.00,WeatherDisplay:10.37,2013-01-12 17:59:00,
2013-01-12 13:14:00,80.7,62.0,30.07,North,354,0.0,0.0,53,0.00,CLR,,0.00,WeatherDisplay:10.37,2013-01-12 18:14:00,
2013-01-12 13:29:00,80.5,61.3,30.06,East,100,0.0,7.0,52,0.00,CLR,,0.00,WeatherDisplay:10.37,2013-01-12 18:29:00,
2013-01-12 13:44:00,81.1,61.3,30.05,ESE,105,0.0,0.0,51,0.00,CLR,,0.00,WeatherDisplay:10.37,2013-01-12 18:44:00,
2013-01-12 13:59:00,80.3,61.1,30.05,ESE,105,0.0,0.0,52,0.00,CLR,,0.00,WeatherDisplay:10.37,2013-01-12 18:59:00,
2013-01-12 14:14:00,80.5,60.7,30.05,ESE,105,0.0,6.0,51,0.00,CLR,,0.00,WeatherDisplay:10.37,2013-01-12 19:14:00,
2013-01-12 14:29:00,80.3,60.5,30.05,SE,131,0.0,4.0,51,0.00,CLR,,0.00,WeatherDisplay:10.37,2013-01-12 19:29:00,
2013-01-12 14:44:00,80.3,61.1,30.04,SE,131,0.0,0.0,52,0.00,CLR,,0.00,WeatherDisplay:10.37,2013-01-12 19:44:00,
2013-01-12 14:59:00,81.9,60.9,30.04,SE,130,0.0,0.0,49,0.00,CLR,,0.00,WeatherDisplay:10.37,2013-01-12 19:59:00,
2013-01-12 15:14:00,81.1,60.1,30.04,ENE,66,0.0,5.0,49,0.00,CLR,,0.00,WeatherDisplay:10.37,2013-01-12 20:14:00,
2013-01-12 15:29:00,80.5,60.7,30.04,ENE,59,0.0,0.0,51,0.00,CLR,,0.00,WeatherDisplay:10.37,2013-01-12 20:29:00,
2013-01-12 15:44:00,81.4,59.8,30.04,ENE,60,0.0,6.0,48,0.00,CLR,,0.00,WeatherDisplay:10.37,2013-01-12 20:44:00,
2013-01-12 15:59:00,83.0,60.7,30.05,ESE,109,0.0,7.0,47,0.00,CLR,,0.00,WeatherDisplay:10.37,2013-01-12 20:59:00,
2013-01-12 16:14:00,82.8,60.5,30.05,ENE,77,0.0,0.0,47,0.00,CLR,,0.00,WeatherDisplay:10.37,2013-01-12 21:14:00,
2013-01-12 16:29:00,82.2,60.6,30.05,ESE,103,0.0,7.0,48,0.00,CLR,,0.00,WeatherDisplay:10.37,2013-01-12 21:29:00,
2013-01-12 16:44:00,81.8,60.2,30.05,ENE,74,0.0,5.0,48,0.00,CLR,,0.00,WeatherDisplay:10.37,2013-01-12 21:44:00,
2013-01-12 16:59:00,80.7,60.9,30.06,East,92,0.0,1.0,51,0.00,CLR,,0.00,WeatherDisplay:10.37,2013-01-12 21:59:00,
2013-01-12 17:14:00,79.3,61.2,30.07,East,96,0.0,0.0,54,0.00,CLR,,0.00,WeatherDisplay:10.37,2013-01-12 22:14:00,
2013-01-12 17:29:00,78.5,61.5,30.07,East,96,0.0,0.0,56,0.00,CLR,,0.00,WeatherDisplay:10.37,2013-01-12 22:29:00,
2013-01-12 17:44:00,77.2,61.8,30.07,East,100,0.0,3.0,59,0.00,CLR,,0.00,WeatherDisplay:10.37,2013-01-12 22:44:00,
2013-01-12 17:59:00,76.1,61.6,30.07,East,92,0.0,0.0,61,0.00,,,0.00,WeatherDisplay:10.37,2013-01-12 22:59:00,
2013-01-12 18:14:00,74.9,61.9,30.07,East,92,0.0,0.0,64,0.00,,,0.00,WeatherDisplay:10.37,2013-01-12 23:14:00,
2013-01-12 18:29:00,73.8,61.3,30.07,East,92,0.0,0.0,65,0.00,,,0.00,WeatherDisplay:10.37,2013-01-12 23:29:00,
2013-01-12 18:44:00,73.0,61.4,30.07,East,98,0.0,7.0,67,0.00,,,0.00,WeatherDisplay:10.37,2013-01-12 23:44:00,
2013-01-12 18:59:00,72.7,61.1,30.08,East,90,0.0,5.0,67,0.00,,,0.00,WeatherDisplay:10.37,2013-01-12 23:59:00,
2013-01-12 19:14:00,72.0,61.7,30.08,East,90,0.0,0.0,70,0.00,,,0.00,WeatherDisplay:10.37,2013-01-13 00:14:00,
2013-01-12 19:29:00,71.3,61.8,30.08,East,92,1.0,5.0,72,0.00,,,0.00,WeatherDisplay:10.37,2013-01-13 00:29:00,
2013-01-12 19:44:00,70.6,61.9,30.08,ESE,104,0.0,6.0,74,0.00,,,0.00,WeatherDisplay:10.37,2013-01-13 00:44:00,
2013-01-12 19:59:00,70.3,62.4,30.08,ESE,111,0.0,6.0,76,0.00,,,0.00,WeatherDisplay:10.37,2013-01-13 00:59:00,
2013-01-12 20:14:00,69.8,62.3,30.08,ESE,111,0.0,2.0,77,0.00,,,0.00,WeatherDisplay:10.37,2013-01-13 01:14:00,
2013-01-12 20:29:00,69.4,62.6,30.07,ESE,122,0.0,7.0,79,0.00,,,0.00,WeatherDisplay:10.37,2013-01-13 01:29:00,
2013-01-12 20:44:00,69.1,62.3,30.07,ESE,119,0.0,4.0,79,0.00,,,0.00,WeatherDisplay:10.37,2013-01-13 01:44:00,
2013-01-12 20:59:00,68.9,62.5,30.07,ESE,117,0.0,6.0,80,0.00,,,0.00,WeatherDisplay:10.37,2013-01-13 01:59:00,
2013-01-12 21:14:00,68.9,62.8,30.06,SE,124,0.0,0.0,81,0.00,,,0.00,WeatherDisplay:10.37,2013-01-13 02:14:00,
2013-01-12 21:29:00,68.9,63.2,30.06,ESE,117,0.0,6.0,82,0.00,,,0.00,WeatherDisplay:10.37,2013-01-13 02:29:00,
2013-01-12 21:44:00,68.8,63.1,30.06,ESE,104,0.0,9.0,82,0.00,,,0.00,WeatherDisplay:10.37,2013-01-13 02:44:00,
2013-01-12 21:59:00,68.6,63.2,30.06,ESE,113,0.0,5.0,83,0.00,,,0.00,WeatherDisplay:10.37,2013-01-13 02:59:00,
2013-01-12 22:14:00,68.3,63.3,30.06,ESE,107,0.0,7.0,84,0.00,,,0.00,WeatherDisplay:10.37,2013-01-13 03:14:00,
2013-01-12 22:29:00,67.9,63.2,30.06,ESE,107,0.0,0.0,85,0.00,,,0.00,WeatherDisplay:10.37,2013-01-13 03:29:00,
2013-01-12 22:44:00,67.6,63.3,30.05,ESE,107,0.0,0.0,86,0.00,,,0.00,WeatherDisplay:10.37,2013-01-13 03:44:00,
2013-01-12 22:59:00,67.3,63.6,30.06,ESE,107,0.0,0.0,88,0.00,,,0.00,WeatherDisplay:10.37,2013-01-13 03:59:00,
2013-01-12 23:14:00,67.1,63.7,30.06,ESE,107,0.0,0.0,89,0.00,,,0.00,WeatherDisplay:10.37,2013-01-13 04:14:00,
2013-01-12 23:29:00,66.8,63.5,30.06,ESE,107,0.0,0.0,89,0.00,,,0.00,WeatherDisplay:10.37,2013-01-13 04:29:00,
2013-01-12 23:44:00,66.4,63.4,30.06,ESE,107,0.0,0.0,90,0.00,,,0.00,WeatherDisplay:10.37,2013-01-13 04:44:00,
2013-01-12 23:59:00,66.0,63.0,30.06,ESE,107,0.0,0.0,90,0.00,,,0.00,WeatherDisplay:10.37,2013-01-13 04:59:00,